time_stamp(utc),avg(mph),gust(mph),direction(deg),12m_air_temp(f),sonic_u(cm/s),sonic_v(cm/s),sonic_w(cm/s),pressure,2m_air_temp(f),pyranometer(W/m^2)
"2020-09-29 00:03:00+00",9.4,13.4,,69.8,-19,-393,-32,1012.29,69.5,0
"2020-09-29 00:08:00+00",9.2,12.2,,69.9,-14,-372,-8,1012.22,69.5,0
"2020-09-29 00:13:00+00",8.4,12.4,,69.8,-22,-360,0,1012.31,69.4,0
"2020-09-29 00:18:00+00",10.7,14.7,,69.8,-40,-476,-26,1012.31,69.4,0
"2020-09-29 00:23:00+00",9.2,12.2,,69.7,-38,-396,-5,1012.31,69.4,0
"2020-09-29 00:28:00+00",8.5,11.5,,69.7,-46,-363,12,1012.47,69.3,0
"2020-09-29 00:33:00+00",10.5,13.5,,69.7,-106,-472,-12,1012.57,69.3,0
"2020-09-29 00:38:00+00",10.7,11.7,,69.7,-148,-435,-3,1012.57,69.3,0
"2020-09-29 00:43:00+00",10.9,12.9,,69.7,-166,-447,3,1012.64,69.2,0
"2020-09-29 00:48:00+00",11.4,14.4,,69.7,-163,-469,6,1012.61,69.2,0
"2020-09-29 00:53:00+00",11.9,13.9,,69.7,-172,-494,-23,1012.68,69.2,0
"2020-09-29 00:58:00+00",13.3,16.3,,69.8,-205,-551,-15,1012.71,69.2,0
"2020-09-29 01:03:00+00",12.0,14.0,,69.8,-155,-502,-3,1012.66,69.2,0
"2020-09-29 01:08:00+00",10.1,13.1,,69.8,-76,-436,6,1012.62,69.2,0
"2020-09-29 01:13:00+00",12.3,15.3,,69.8,-151,-522,-3,1012.76,69.2,0
"2020-09-29 01:18:00+00",10.9,13.9,,69.8,-107,-450,6,1012.61,69.1,0
"2020-09-29 01:23:00+00",10.7,13.7,,69.7,-106,-447,5,1012.65,69.1,0
"2020-09-29 01:28:00+00",12.3,14.3,,69.7,-105,-510,-5,1012.68,69.1,0
"2020-09-29 01:33:00+00",11.1,16.1,,69.7,-103,-497,-18,1012.8,69.1,0
"2020-09-29 01:38:00+00",11.7,14.7,,69.6,-131,-487,5,1012.83,69.1,0
"2020-09-29 01:43:00+00",13.0,18.0,,69.6,-148,-547,-21,1012.77,69,0
"2020-09-29 01:48:00+00",11.8,14.8,,69.5,-108,-492,0,1012.72,69,0
"2020-09-29 01:53:00+00",12.0,15.0,,69.5,-102,-506,-12,1012.78,69,0
"2020-09-29 01:58:00+00",9.3,13.3,,69.4,-80,-386,3,1012.8,68.9,0
"2020-09-29 02:03:00+00",11.6,15.6,,69.4,-122,-492,1,1012.75,68.9,0
"2020-09-29 02:08:00+00",9.1,12.1,,69.3,-84,-382,7,1012.67,68.8,0
"2020-09-29 02:13:00+00",8.1,11.1,,69.3,-44,-352,-1,1012.76,68.8,0
"2020-09-29 02:18:00+00",9.6,11.6,,69.3,-43,-410,-11,1012.72,68.8,0
"2020-09-29 02:23:00+00",8.9,11.9,,69.3,-27,-376,-2,1012.72,68.8,0
"2020-09-29 02:28:00+00",11.3,13.3,,69.3,-13,-490,-26,1012.74,68.8,0
"2020-09-29 02:33:00+00",9.7,11.7,,69.3,-21,-395,-13,1012.7,68.9,0
"2020-09-29 02:38:00+00",11.0,13.0,,69.4,-68,-465,-11,1012.65,68.9,0
"2020-09-29 02:43:00+00",10.0,13.0,,69.4,-19,-429,-22,1012.63,68.9,0
"2020-09-29 02:48:00+00",9.1,12.1,,69.3,5,-392,-24,1012.65,68.8,0
"2020-09-29 02:53:00+00",10.2,13.2,,69.3,-24,-420,-9,1012.61,68.8,0
"2020-09-29 02:58:00+00",8.8,15.8,,69.3,-41,-346,8,1012.54,68.8,0
"2020-09-29 03:03:00+00",11.2,14.2,,69.3,-24,-479,-27,1012.6,68.8,0
"2020-09-29 03:08:00+00",10.3,12.3,,69.3,-28,-439,-20,1012.57,68.8,0
"2020-09-29 03:13:00+00",9.7,12.7,,69.2,-51,-432,-28,1012.65,68.7,0
"2020-09-29 03:18:00+00",10.0,13.0,,69.1,-40,-416,6,1012.58,68.7,0
"2020-09-29 03:23:00+00",8.7,11.7,,69.1,-41,-371,-6,1012.62,68.6,0
"2020-09-29 03:28:00+00",9.2,13.2,,69.1,-44,-390,-14,1012.67,68.6,0
"2020-09-29 03:33:00+00",8.0,10.0,,69.1,-67,-336,0,1012.63,68.6,0
"2020-09-29 03:38:00+00",10.1,12.1,,69.1,-45,-420,-26,1012.61,68.5,0
"2020-09-29 03:43:00+00",9.3,11.3,,69,-42,-396,0,1012.61,68.5,0
"2020-09-29 03:48:00+00",9.4,12.4,,69.1,-59,-400,-10,1012.76,68.5,0
"2020-09-29 03:53:00+00",9.9,11.9,,69,-35,-411,-23,1012.84,68.5,0
"2020-09-29 03:58:00+00",7.5,9.5,,69,-58,-316,-2,1012.76,68.5,0
"2020-09-29 04:03:00+00",6.2,9.2,,68.9,-25,-273,-5,1012.71,68.4,0
"2020-09-29 04:08:00+00",8.4,11.4,,69,-60,-349,-7,1012.77,68.4,0
"2020-09-29 04:13:00+00",7.2,10.2,,69,-28,-307,-3,1012.71,68.4,0
"2020-09-29 04:18:00+00",9.1,12.1,,69,-52,-382,0,1012.62,68.5,0
"2020-09-29 04:23:00+00",9.7,11.7,,69.1,-29,-410,-8,1012.61,68.5,0
"2020-09-29 04:28:00+00",8.0,9.0,,69.1,-4,-339,-7,1012.58,68.6,0
"2020-09-29 04:33:00+00",8.6,10.6,,69.1,-5,-372,-31,1012.63,68.6,0
"2020-09-29 04:38:00+00",9.3,11.3,,69.1,2,-391,-17,1012.79,68.6,0
"2020-09-29 04:43:00+00",8.5,10.5,,69.1,-6,-375,-14,1012.72,68.6,0
"2020-09-29 04:48:00+00",8.4,12.4,,69.1,-27,-353,-4,1012.7,68.6,0
"2020-09-29 04:53:00+00",8.5,10.5,,69.1,-45,-350,2,1012.72,68.7,0
"2020-09-29 04:58:00+00",9.2,13.2,,69,-91,-387,-3,1012.63,68.6,0
"2020-09-29 05:03:00+00",7.8,12.8,,68.9,-77,-332,3,1012.62,68.5,0
"2020-09-29 05:08:00+00",9.0,12.0,,68.9,-71,-374,12,1012.52,68.4,0
"2020-09-29 05:13:00+00",8.3,10.3,,68.8,-83,-346,-8,1012.45,68.3,0
"2020-09-29 05:18:00+00",9.7,12.7,,68.8,-110,-408,-6,1012.41,68.3,0
"2020-09-29 05:23:00+00",8.1,10.1,,68.8,-89,-333,0,1012.46,68.2,0
"2020-09-29 05:28:00+00",10.2,11.2,,68.8,-114,-420,-17,1012.41,68.2,0
"2020-09-29 05:33:00+00",8.8,10.8,,68.7,-93,-368,-3,1012.34,68.2,0
"2020-09-29 05:38:00+00",9.1,12.1,,68.7,-72,-392,-7,1012.36,68.2,0
"2020-09-29 05:43:00+00",9.2,12.2,,68.7,-79,-381,0,1012.35,68.2,0
"2020-09-29 05:48:00+00",8.1,12.1,,68.6,-85,-344,5,1012.37,68.1,0
"2020-09-29 05:53:00+00",10.1,12.1,,68.6,-106,-419,1,1012.39,68.2,0
"2020-09-29 05:58:00+00",8.7,10.7,,68.6,-111,-365,-2,1012.38,68.1,0
"2020-09-29 06:03:00+00",9.5,11.5,,68.6,-124,-383,2,1012.36,68.1,0
"2020-09-29 06:08:00+00",9.2,11.2,,68.7,-140,-374,8,1012.42,68.1,0
"2020-09-29 06:13:00+00",10.8,12.8,,68.7,-157,-443,1,1012.32,68.2,0
"2020-09-29 06:18:00+00",11.8,13.8,,68.8,-163,-490,-15,1012.27,68.2,0
"2020-09-29 06:23:00+00",9.6,11.6,,68.8,-122,-389,-4,1012.26,68.2,0
"2020-09-29 06:28:00+00",10.0,13.0,,68.8,-113,-432,-4,1012.23,68.2,0
"2020-09-29 06:33:00+00",8.3,10.3,,68.8,-80,-358,3,1012.16,68.2,0
"2020-09-29 06:38:00+00",8.6,12.6,,68.7,-72,-373,-2,1012.16,68.2,0
"2020-09-29 06:43:00+00",8.6,10.6,,68.7,-64,-362,-2,1012.2,68.1,0
"2020-09-29 06:48:00+00",9.8,11.8,,68.8,-74,-415,-15,1012.05,68.2,0
"2020-09-29 06:53:00+00",8.2,11.2,,68.8,-41,-339,9,1012.04,68.2,0
"2020-09-29 06:58:00+00",9.4,12.4,,68.7,-45,-395,-8,1012.01,68.2,0
"2020-09-29 07:03:00+00",8.7,11.7,,68.7,-40,-364,-7,1011.94,68.2,0
"2020-09-29 07:08:00+00",8.6,11.6,,68.7,-64,-379,-8,1011.85,68.2,0
"2020-09-29 07:13:00+00",8.4,12.4,,68.7,-52,-350,3,1011.97,68.1,0
"2020-09-29 07:18:00+00",8.4,11.4,,68.7,-91,-332,7,1011.88,68.1,0
"2020-09-29 07:23:00+00",7.6,10.6,,68.7,-43,-334,-4,1011.72,68.1,0
"2020-09-29 07:28:00+00",8.5,10.5,,68.7,-54,-349,-5,1011.73,68.1,0
"2020-09-29 07:33:00+00",7.9,9.9,,68.7,-47,-323,-5,1011.65,68.1,0
"2020-09-29 07:38:00+00",8.9,10.9,,68.8,-42,-363,-22,1011.64,68.2,0
"2020-09-29 07:43:00+00",7.0,9.0,,68.8,-7,-295,-12,1011.65,68.3,0
"2020-09-29 07:48:00+00",7.5,11.5,,68.9,-30,-323,-9,1011.62,68.4,0
"2020-09-29 07:53:00+00",7.5,9.5,,68.9,-36,-318,12,1011.6,68.4,0
"2020-09-29 07:58:00+00",9.4,11.4,,69,-35,-389,-22,1011.52,68.4,0
"2020-09-29 08:03:00+00",8.1,11.1,,69,-36,-341,-19,1011.4,68.4,0
"2020-09-29 08:08:00+00",7.1,9.1,,69,-25,-299,-1,1011.42,68.5,0
"2020-09-29 08:13:00+00",7.4,10.4,,69,0,-319,-8,1011.34,68.5,0
"2020-09-29 08:18:00+00",7.6,10.6,,69,-12,-324,-2,1011.49,68.6,0
"2020-09-29 08:23:00+00",9.8,11.8,,69.1,-39,-433,-16,1011.59,68.6,0
"2020-09-29 08:28:00+00",8.8,10.8,,69.1,-29,-372,-16,1011.57,68.6,0
"2020-09-29 08:33:00+00",7.9,9.9,,69.1,-60,-343,-4,1011.6,68.7,0
"2020-09-29 08:38:00+00",9.1,12.1,,69,-90,-384,-6,1011.74,68.6,0
"2020-09-29 08:43:00+00",7.1,9.1,,69,-69,-299,2,1011.61,68.6,0
"2020-09-29 08:48:00+00",7.3,10.3,,69,-64,-299,-11,1011.68,68.6,0
"2020-09-29 08:53:00+00",7.1,10.1,,69,-69,-314,1,1011.75,68.6,0
"2020-09-29 08:58:00+00",7.8,9.8,,69,-60,-322,-4,1011.78,68.5,0
"2020-09-29 09:03:00+00",6.5,9.5,,69,-42,-266,20,1011.71,68.5,0
"2020-09-29 09:08:00+00",7.9,9.9,,69,-35,-333,-3,1011.7,68.5,0
"2020-09-29 09:13:00+00",9.0,11.0,,69.1,-46,-386,-21,1011.72,68.5,0
"2020-09-29 09:18:00+00",8.7,10.7,,69.2,-29,-366,-16,1011.68,68.6,0
"2020-09-29 09:23:00+00",9.1,12.1,,69.2,-45,-389,-15,1011.76,68.6,0
"2020-09-29 09:28:00+00",7.4,10.4,,69.3,-29,-313,4,1011.67,68.8,0
"2020-09-29 09:33:00+00",8.8,11.8,,69.4,-54,-380,-1,1011.76,68.8,0
"2020-09-29 09:38:00+00",11.5,13.5,,69.4,-141,-463,-3,1011.78,68.9,0
"2020-09-29 09:43:00+00",10.2,12.2,,69.5,-128,-426,-1,1011.72,69,0
"2020-09-29 09:48:00+00",8.1,10.1,,69.5,-77,-358,8,1011.67,69,0
"2020-09-29 09:53:00+00",10.3,11.3,,69.6,-68,-432,-14,1011.71,69.1,0
"2020-09-29 09:58:00+00",9.6,13.6,,69.6,-62,-412,-4,1011.78,69.2,0
"2020-09-29 10:03:00+00",8.6,12.6,,69.7,-84,-355,6,1011.85,69.3,0
"2020-09-29 10:08:00+00",9.5,12.5,,69.7,-101,-407,-12,1011.99,69.3,0
"2020-09-29 10:13:00+00",8.6,12.6,,69.8,-86,-361,-4,1012.04,69.4,0
"2020-09-29 10:18:00+00",10.2,14.2,,69.8,-100,-429,-5,1012.06,69.4,0
"2020-09-29 10:23:00+00",10.6,12.6,,69.8,-106,-455,-6,1012.13,69.5,0
"2020-09-29 10:28:00+00",8.8,11.8,,69.8,-87,-363,11,1012.16,69.5,0
"2020-09-29 10:33:00+00",8.0,11.0,,69.8,-101,-314,-6,1012.13,69.4,0
"2020-09-29 10:38:00+00",8.0,11.0,,69.8,-41,-351,-13,1012.2,69.4,0
"2020-09-29 10:43:00+00",6.6,7.6,,69.7,-36,-271,-7,1012.08,69.4,0
"2020-09-29 10:48:00+00",6.8,7.8,,69.8,-106,-270,3,1012.26,69.4,0
"2020-09-29 10:53:00+00",6.8,8.8,,69.8,-85,-277,-8,1012.23,69.4,0
"2020-09-29 10:58:00+00",7.2,9.2,,69.8,-70,-301,-1,1012.27,69.4,0
"2020-09-29 11:03:00+00",7.4,9.4,,69.9,-74,-296,0,1012.24,69.5,0
"2020-09-29 11:08:00+00",7.2,10.2,,69.9,-32,-320,-14,1012.26,69.5,0
"2020-09-29 11:13:00+00",6.5,8.5,,70,-7,-269,3,1012.2,69.6,0
"2020-09-29 11:18:00+00",8.7,10.7,,70,17,-361,-22,1012.21,69.6,0
"2020-09-29 11:23:00+00",8.9,11.9,,70,45,-375,-2,1012.14,69.6,0
"2020-09-29 11:28:00+00",8.6,10.6,,70,35,-359,-25,1012.1,69.7,0
"2020-09-29 11:33:00+00",10.0,13.0,,70,24,-427,-23,1012.03,69.7,0
"2020-09-29 11:38:00+00",9.5,12.5,,70,44,-413,-19,1012.11,69.8,0
"2020-09-29 11:43:00+00",8.4,11.4,,70,12,-347,6,1012.07,69.8,0
"2020-09-29 11:48:00+00",11.3,13.3,,70,67,-474,-23,1012.12,69.8,0
"2020-09-29 11:53:00+00",11.0,13.0,,70,60,-464,-14,1012.19,69.8,0
"2020-09-29 11:58:00+00",9.5,13.5,,70,-4,-418,-17,1012.23,69.8,0
"2020-09-29 12:03:00+00",10.1,13.1,,70.1,-10,-422,1,1012.22,69.9,0
"2020-09-29 12:08:00+00",9.4,13.4,,70.3,-20,-394,-9,1012.23,70.1,0
"2020-09-29 12:13:00+00",8.8,13.8,,70.4,-15,-401,-8,1012.18,70.2,0
"2020-09-29 12:18:00+00",8.5,11.5,,70.5,2,-374,-14,1012.17,70.3,0
"2020-09-29 12:23:00+00",9.9,12.9,,70.5,59,-412,3,1012.14,70.4,0
"2020-09-29 12:28:00+00",10.0,13.0,,70.8,25,-443,-21,1012.15,70.8,0
"2020-09-29 12:33:00+00",11.2,14.2,,70.9,66,-473,-6,1012.04,70.9,0
"2020-09-29 12:38:00+00",10.9,13.9,,70.8,123,-444,-13,1012.03,71,0
"2020-09-29 12:43:00+00",10.0,13.0,,70.8,134,-421,8,1011.98,71.1,0
"2020-09-29 12:48:00+00",10.1,12.1,,70.8,127,-426,-6,1011.99,71.1,0
"2020-09-29 12:53:00+00",11.6,13.6,,70.7,132,-469,-17,1011.92,70.9,0
"2020-09-29 12:58:00+00",9.2,12.2,,70.6,68,-395,0,1012,70.8,0
"2020-09-29 13:03:00+00",7.6,10.6,,70.6,37,-317,5,1012.01,70.7,0
"2020-09-29 13:08:00+00",9.4,12.4,,70.7,34,-385,-17,1012.08,70.8,0
"2020-09-29 13:13:00+00",8.8,11.8,,70.8,64,-380,-6,1012,70.9,0
"2020-09-29 13:18:00+00",11.3,14.3,,70.9,68,-471,-17,1012.1,71.1,0
"2020-09-29 13:23:00+00",10.4,12.4,,70.9,92,-428,-14,1012.07,71.2,0
"2020-09-29 13:28:00+00",10.7,13.7,,70.9,61,-456,-9,1012.02,71.2,0
"2020-09-29 13:33:00+00",11.9,13.9,,70.9,97,-498,-20,1011.98,71.3,0
"2020-09-29 13:38:00+00",9.8,11.8,,70.9,41,-407,-19,1012.09,71.2,0
"2020-09-29 13:43:00+00",10.9,14.9,,71,72,-460,-8,1012.03,71.4,0
"2020-09-29 13:48:00+00",12.3,16.3,,70.9,100,-532,-16,1011.99,71.3,0
"2020-09-29 13:53:00+00",12.0,14.0,,70.8,118,-506,-11,1012.04,71.3,0
"2020-09-29 13:58:00+00",11.0,14.0,,70.7,91,-468,-5,1011.94,71.2,0
"2020-09-29 14:03:00+00",14.5,17.5,,70.6,131,-611,-30,1012.01,71,0
"2020-09-29 14:08:00+00",11.3,13.3,,70.6,90,-483,-19,1012.04,70.9,0
"2020-09-29 14:13:00+00",11.3,14.3,,70.4,83,-499,-18,1012.03,70.8,0
"2020-09-29 14:18:00+00",11.1,14.1,,70.4,170,-458,-8,1011.84,70.7,0
"2020-09-29 14:23:00+00",12.5,14.5,,70.4,134,-514,-31,1012.02,70.7,0
"2020-09-29 14:28:00+00",10.4,12.4,,70.6,98,-418,9,1012.12,70.8,0
"2020-09-29 14:33:00+00",10.6,13.6,,70.7,48,-442,-10,1012.17,70.9,0
"2020-09-29 14:38:00+00",10.8,15.8,,70.7,72,-463,-14,1012.07,71,0
"2020-09-29 14:43:00+00",10.2,12.2,,71,58,-416,-20,1011.95,71.3,0
"2020-09-29 14:48:00+00",11.6,15.6,,71.5,67,-503,-31,1011.79,72.2,0
"2020-09-29 14:53:00+00",11.2,15.2,,71.9,37,-489,-21,1011.75,72.9,0
"2020-09-29 14:58:00+00",12.3,15.3,,71.9,64,-508,-10,1011.72,73,0
"2020-09-29 15:03:00+00",13.9,17.9,,72,68,-601,-31,1011.76,73.2,0
"2020-09-29 15:08:00+00",12.5,17.5,,71.8,47,-522,-19,1011.71,72.6,0
"2020-09-29 15:13:00+00",8.5,12.5,,71.8,12,-349,-4,1011.8,72.5,0
"2020-09-29 15:18:00+00",11.6,17.6,,72.1,-14,-513,-44,1011.81,72.7,0
"2020-09-29 15:23:00+00",8.9,11.9,,72.4,18,-371,-7,1011.71,72.9,0
"2020-09-29 15:28:00+00",12.3,15.3,,72.4,16,-522,-35,1011.63,73,0
"2020-09-29 15:33:00+00",10.4,13.4,,72.3,32,-433,-25,1011.66,72.9,0
"2020-09-29 15:38:00+00",11.4,14.4,,71.9,33,-470,-21,1011.54,72.6,0
"2020-09-29 15:43:00+00",10.4,15.4,,71.8,-13,-395,-9,1011.55,72.6,0
"2020-09-29 15:48:00+00",9.0,13.0,,72.2,-5,-358,20,1011.5,72.8,0
"2020-09-29 15:53:00+00",12.0,17.0,,72.4,46,-518,-9,1011.36,72.9,0
"2020-09-29 15:58:00+00",11.8,15.8,,72.6,34,-492,-7,1011.41,73.3,0
"2020-09-29 16:03:00+00",11.8,14.8,,72.8,-25,-479,-4,1011.4,73.4,0
"2020-09-29 16:08:00+00",10.4,14.4,,72.7,43,-438,-25,1011.44,73.3,0
"2020-09-29 16:13:00+00",9.9,13.9,,72.6,-18,-414,13,1011.45,73.3,0
"2020-09-29 16:18:00+00",11.2,16.2,,72.5,-54,-464,6,1011.39,73.1,0
"2020-09-29 16:23:00+00",12.9,17.9,,72.5,10,-563,-31,1011.28,73,0
"2020-09-29 16:28:00+00",13.9,17.9,,72.4,7,-592,-20,1011.26,72.9,0
"2020-09-29 16:33:00+00",13.5,17.5,,72.5,-2,-564,-25,1011.15,73.2,0
"2020-09-29 16:38:00+00",9.4,12.4,,72.9,4,-376,36,1011.15,73.5,0
"2020-09-29 16:43:00+00",12.1,19.1,,73,-63,-549,-10,1011.14,73.6,0
"2020-09-29 16:48:00+00",12.2,14.2,,72.9,-51,-517,-1,1011.07,73.6,0
"2020-09-29 16:53:00+00",10.5,14.5,,73.1,-5,-427,-8,1011.08,73.8,0
"2020-09-29 16:58:00+00",12.8,15.8,,73.2,-22,-550,-31,1011,74,0
"2020-09-29 17:03:00+00",9.1,12.1,,73.5,-69,-387,34,1011.04,74.5,0
"2020-09-29 17:08:00+00",15.8,18.8,,73.9,-163,-658,0,1010.85,74.6,0
"2020-09-29 17:13:00+00",11.0,14.0,,73.7,-5,-461,9,1010.58,74.5,0
"2020-09-29 17:18:00+00",9.2,13.2,,73.4,-17,-381,27,1010.55,74.3,0
"2020-09-29 17:23:00+00",10.7,14.7,,73.4,-56,-436,-12,1010.64,74.2,0
"2020-09-29 17:28:00+00",12.7,18.7,,73.1,-51,-543,-3,1010.51,74,0
"2020-09-29 17:33:00+00",12.6,17.6,,72.9,-42,-548,-28,1010.54,73.6,0
"2020-09-29 17:38:00+00",11.4,15.4,,72.6,-16,-485,-18,1010.5,73.1,0
"2020-09-29 17:43:00+00",12.1,16.1,,72.3,11,-495,-18,1010.29,72.8,0
"2020-09-29 17:48:00+00",11.2,14.2,,72.2,4,-463,5,1010.24,72.7,0
"2020-09-29 17:53:00+00",13.1,17.1,,72.4,-31,-542,-33,1010.08,72.9,0
"2020-09-29 17:58:00+00",13.8,15.8,,72.6,-15,-595,-44,1009.95,73.2,0
"2020-09-29 18:03:00+00",11.3,15.3,,72.7,-7,-483,-22,1009.89,73.4,0
"2020-09-29 18:08:00+00",10.1,14.1,,72.6,3,-430,-17,1009.69,73.4,0
"2020-09-29 18:13:00+00",11.3,16.3,,72.7,-49,-488,-10,1009.75,73.4,0
"2020-09-29 18:18:00+00",11.3,15.3,,72.8,-74,-482,3,1009.69,73.5,0
"2020-09-29 18:23:00+00",10.9,14.9,,72.9,-92,-465,-5,1009.69,73.6,0
"2020-09-29 18:28:00+00",12.5,14.5,,73.3,-148,-525,-5,1009.54,73.8,0
"2020-09-29 18:33:00+00",12.6,16.6,,73.3,-81,-526,1,1009.41,74,0
"2020-09-29 18:38:00+00",12.0,16.0,,73.2,-137,-499,-7,1009.29,73.8,0
"2020-09-29 18:43:00+00",9.3,12.3,,73.3,-77,-416,13,1009.32,73.8,0
"2020-09-29 18:48:00+00",7.9,9.9,,73.4,-18,-313,42,1009.22,73.9,0
"2020-09-29 18:53:00+00",10.5,12.5,,73.1,-23,-452,-19,1009.26,73.6,0
"2020-09-29 18:58:00+00",11.7,14.7,,73,-56,-516,-21,1009.16,73.5,0
"2020-09-29 19:03:00+00",9.9,14.9,,72.9,-45,-394,-11,1009.23,73.5,0
"2020-09-29 19:08:00+00",8.8,10.8,,72.9,34,-340,14,1009.19,73.4,0
"2020-09-29 19:13:00+00",9.3,13.3,,72.5,73,-394,-26,1009.16,73.1,0
"2020-09-29 19:18:00+00",7.8,9.8,,72.2,30,-317,9,1009.09,72.9,0
"2020-09-29 19:23:00+00",9.0,11.0,,72.1,53,-365,-8,1009.05,72.9,0
"2020-09-29 19:28:00+00",10.4,12.4,,72.1,51,-441,-39,1008.99,72.9,0
"2020-09-29 19:33:00+00",9.5,12.5,,72,87,-400,-15,1008.93,72.8,0
"2020-09-29 19:38:00+00",8.7,11.7,,72,80,-344,-18,1008.89,72.6,0
"2020-09-29 19:43:00+00",11.4,14.4,,71.8,98,-482,-21,1009.11,72.4,0
"2020-09-29 19:48:00+00",12.7,15.7,,71.8,181,-517,-25,1009.11,72.4,0
"2020-09-29 19:53:00+00",13.7,15.7,,71.6,182,-547,-8,1009.07,72.3,0
"2020-09-29 19:58:00+00",13.1,16.1,,71.8,127,-548,-6,1008.87,72.4,0
"2020-09-29 20:03:00+00",13.1,17.1,,71.9,104,-542,7,1008.81,72.5,0
"2020-09-29 20:08:00+00",11.3,14.3,,71.9,79,-482,-1,1008.66,72.4,0
"2020-09-29 20:13:00+00",13.5,15.5,,71.8,90,-584,-29,1008.58,72.2,0
"2020-09-29 20:18:00+00",13.3,17.3,,71.8,135,-547,-10,1008.57,72.3,0
"2020-09-29 20:23:00+00",13.0,16.0,,71.9,175,-523,-5,1008.31,72.4,0
"2020-09-29 20:28:00+00",13.3,16.3,,72.2,137,-563,7,1008.33,72.5,0
"2020-09-29 20:33:00+00",16.8,20.8,,72.1,190,-702,-18,1008.12,72.5,0
"2020-09-29 20:38:00+00",13.6,17.6,,72.2,155,-573,-15,1008.03,72.4,0
"2020-09-29 20:43:00+00",16.2,19.2,,72.1,156,-676,-17,1007.89,72.4,0
"2020-09-29 20:48:00+00",17.2,23.2,,72.1,148,-698,-1,1007.89,72.3,0
"2020-09-29 20:53:00+00",16.8,20.8,,72,141,-728,-17,1007.86,72.2,0
"2020-09-29 20:58:00+00",16.1,19.1,,71.8,134,-668,-23,1007.87,72,0
"2020-09-29 21:03:00+00",16.7,19.7,,71.8,131,-716,-13,1007.98,72,0
"2020-09-29 21:08:00+00",16.6,21.6,,71.8,116,-691,-8,1007.95,71.9,0
"2020-09-29 21:13:00+00",18.0,21.0,,71.9,180,-756,-21,1007.73,72,0
"2020-09-29 21:18:00+00",16.4,20.4,,71.9,179,-680,-16,1007.63,72,0
"2020-09-29 21:23:00+00",14.7,17.7,,71.8,174,-595,2,1007.62,71.9,0
"2020-09-29 21:28:00+00",16.3,22.3,,71.7,217,-674,-23,1007.44,71.8,0
"2020-09-29 21:33:00+00",14.6,18.6,,71.7,198,-607,0,1007.43,71.8,0
"2020-09-29 21:38:00+00",14.1,17.1,,71.6,139,-609,-8,1007.35,71.7,0
"2020-09-29 21:43:00+00",11.7,15.7,,71.6,126,-478,0,1007.25,71.7,0
"2020-09-29 21:48:00+00",12.4,15.4,,71.6,152,-523,-9,1007.34,71.6,0
"2020-09-29 21:53:00+00",11.1,14.1,,71.6,126,-436,12,1007.28,71.6,0
"2020-09-29 21:58:00+00",12.5,15.5,,71.7,110,-520,-3,1007.31,71.6,0
"2020-09-29 22:03:00+00",13.4,17.4,,71.8,179,-550,1,1007.32,71.7,0
"2020-09-29 22:08:00+00",16.5,20.5,,71.8,213,-670,-4,1007.2,71.7,0
"2020-09-29 22:13:00+00",13.6,16.6,,71.8,178,-551,10,1007.14,71.7,0
"2020-09-29 22:18:00+00",15.5,19.5,,71.9,140,-663,-21,1007.25,71.7,0
"2020-09-29 22:23:00+00",15.3,22.3,,72.1,64,-636,-17,1007.23,71.9,0
"2020-09-29 22:28:00+00",13.7,16.7,,72,45,-596,-21,1007.28,71.9,0
"2020-09-29 22:33:00+00",12.5,16.5,,71.9,40,-531,-13,1007.38,71.8,0
"2020-09-29 22:38:00+00",13.9,17.9,,71.9,73,-588,-34,1007.36,71.7,0
"2020-09-29 22:43:00+00",12.8,16.8,,71.8,17,-538,-14,1007.29,71.6,0
"2020-09-29 22:48:00+00",12.3,16.3,,71.9,38,-523,-24,1007.29,71.7,0
"2020-09-29 22:53:00+00",11.1,16.1,,71.9,36,-491,-16,1007.27,71.7,0
"2020-09-29 22:58:00+00",13.7,16.7,,72,79,-568,-19,1007.3,71.8,0
"2020-09-29 23:03:00+00",13.4,16.4,,71.8,119,-576,-7,1007.21,71.7,0
"2020-09-29 23:08:00+00",12.0,15.0,,71.6,114,-498,-6,1007.18,71.6,0
"2020-09-29 23:13:00+00",14.2,17.2,,71.6,144,-609,-14,1007.23,71.5,0
"2020-09-29 23:18:00+00",14.9,17.9,,71.6,142,-620,-4,1007.21,71.5,0
"2020-09-29 23:23:00+00",14.4,18.4,,71.6,147,-599,-4,1007.22,71.5,0
"2020-09-29 23:28:00+00",14.5,18.5,,71.5,146,-589,1,1007.4,71.4,0
"2020-09-29 23:33:00+00",15.2,21.2,,71.4,160,-658,9,1007.42,71.3,0
"2020-09-29 23:38:00+00",16.4,22.4,,71.3,228,-678,-19,1007.35,71.3,0
"2020-09-29 23:43:00+00",16.8,19.8,,71.2,237,-677,-11,1007.38,71.1,0
"2020-09-29 23:48:00+00",15.1,17.1,,71.1,241,-604,-2,1007.31,71.1,0
"2020-09-29 23:53:00+00",14.0,16.0,,71.1,216,-575,-10,1007.3,71,0
"2020-09-29 23:58:00+00",14.8,16.8,,71,231,-587,7,1007.22,70.9,0
